User: anonymous   Login
Location: Ahausen
(50.4985°N, 8.2722°E)
Time: 20:50:50
(UTC+00:00)
Language:

Cosmos 1025 Rocket - Orbit

View from above orbital plane
View from above orbital plane
View from above satellite
View from above satellite

Ground track
Ground track

The orbit data is extracted from the following two-line orbital elements,

1 10974U 78067B   21210.19029633  .00000108  00000-0  91849-5 0  9993
2 10974  82.4823 185.5603 0018521  45.9205 314.3532 14.87407097330969
Epoch (UTC): 29 July 2021 04:34:01
Eccentricity: 0.0018521
inclination: 82.4823°
perigee height: 593 km
apogee height: 619 km
right ascension of ascending node: 185.5603°
argument of perigee: 45.9205°
revolutions per day: 14.87407097
mean anomaly at epoch: 314.3532°
orbit number at epoch: 33096

The dashed part of the orbit path shows where the satellite is in the earth's shadow,  

DLR